DLH7LW EDDM-EDDC

Flight info

Callsign DLH7LW
Flight time 0h 36m
Altitude 27000
Route AKINI1Q AKINI Y104 MAMOR L132 AGNAV DCT SUPIL DCT KILNU L132 ABKIS Q240 DRN
Aircraft A319/M-SDE2E3FGIJ1LORWXYZ/HB1

Departure

Time 2026-05-06 07:17
Airport Munich Airport (EDDM)

Arrival

Time 2026-05-06 07:53
Airport Dresden Airport (EDDC)
Time Latitude Longitude Altitude Speed Heading
2026-05-06 06:37 48.35744 11.79932 1486 ft 0 kts 263°
2026-05-06 07:08 48.35745 11.79951 1485 ft 4 kts 263°
2026-05-06 07:08 48.35748 11.79991 1485 ft 4 kts 263°
2026-05-06 07:08 48.35751 11.80023 1473 ft 4 kts 269°
2026-05-06 07:08 48.35746 11.80060 1475 ft 4 kts 310°
2026-05-06 07:09 48.35727 11.80076 1485 ft 4 kts 353°
2026-05-06 07:09 48.35714 11.80078 1485 ft 0 kts 353°
2026-05-06 07:11 48.35717 11.80077 1485 ft 1 kts 353°
2026-05-06 07:11 48.35735 11.80074 1485 ft 4 kts 353°
2026-05-06 07:11 48.35774 11.80067 1475 ft 7 kts 353°
2026-05-06 07:11 48.35829 11.80027 1483 ft 11 kts 306°
2026-05-06 07:12 48.35825 11.79902 1485 ft 14 kts 259°
2026-05-06 07:12 48.35807 11.79742 1478 ft 17 kts 261°
2026-05-06 07:12 48.35792 11.79549 1485 ft 20 kts 265°
2026-05-06 07:12 48.35852 11.79374 1485 ft 23 kts 343°
2026-05-06 07:13 48.36011 11.79330 1486 ft 20 kts 352°
2026-05-06 07:13 48.36086 11.79218 1477 ft 18 kts 264°
2026-05-06 07:13 48.36070 11.79025 1477 ft 19 kts 263°
2026-05-06 07:13 48.36055 11.78821 1485 ft 20 kts 263°
2026-05-06 07:14 48.36038 11.78606 1485 ft 21 kts 263°
2026-05-06 07:14 48.36021 11.78380 1485 ft 22 kts 263°
2026-05-06 07:14 48.36003 11.78145 1481 ft 23 kts 263°
2026-05-06 07:14 48.35983 11.77900 1478 ft 24 kts 263°
2026-05-06 07:15 48.35979 11.77696 1474 ft 14 kts 305°
2026-05-06 07:15 48.36073 11.77655 1485 ft 15 kts
2026-05-06 07:15 48.36162 11.77730 1470 ft 16 kts 53°
2026-05-06 07:15 48.36228 11.77867 1475 ft 17 kts 54°
2026-05-06 07:16 48.36303 11.78010 1476 ft 18 kts 50°
2026-05-06 07:16 48.36372 11.78174 1468 ft 21 kts 70°
2026-05-06 07:16 48.36423 11.78663 1486 ft 87 kts 83°
2026-05-06 07:16 48.36520 11.79944 1489 ft 155 kts 84°
2026-05-06 07:17 48.36652 11.81639 1998 ft 169 kts 83°
2026-05-06 07:17 48.36803 11.83450 2665 ft 180 kts 82°
2026-05-06 07:17 48.37000 11.85406 3210 ft 201 kts 75°
2026-05-06 07:17 48.37670 11.87359 3651 ft 222 kts 49°
2026-05-06 07:18 48.39017 11.88704 4114 ft 248 kts 22°
2026-05-06 07:18 48.40681 11.89740 4850 ft 267 kts 23°
2026-05-06 07:18 48.42414 11.90873 5871 ft 275 kts 24°
2026-05-06 07:18 48.44189 11.92048 6857 ft 283 kts 25°
2026-05-06 07:19 48.46010 11.93258 7874 ft 289 kts 24°
2026-05-06 07:19 48.47873 11.94493 8889 ft 296 kts 24°
2026-05-06 07:19 48.49778 11.95754 9891 ft 302 kts 24°
2026-05-06 07:19 48.51724 11.97037 10803 ft 309 kts 23°
2026-05-06 07:20 48.53710 11.98345 11720 ft 314 kts 23°
2026-05-06 07:20 48.55734 11.99680 12637 ft 321 kts 23°
2026-05-06 07:20 48.57771 12.01023 13532 ft 327 kts 22°
2026-05-06 07:20 48.59873 12.02407 14335 ft 332 kts 22°
2026-05-06 07:21 48.62008 12.03814 15157 ft 337 kts 22°
2026-05-06 07:21 48.64169 12.05240 15995 ft 341 kts 22°
2026-05-06 07:21 48.66356 12.06685 16833 ft 345 kts 22°
2026-05-06 07:21 48.68565 12.08147 17658 ft 350 kts 22°
2026-05-06 07:22 48.70808 12.09636 18431 ft 354 kts 22°
2026-05-06 07:22 48.73078 12.11146 19136 ft 359 kts 22°
2026-05-06 07:22 48.75375 12.12675 19824 ft 363 kts 22°
2026-05-06 07:22 48.77741 12.14304 20044 ft 385 kts 23°
2026-05-06 07:23 48.80230 12.16078 20222 ft 404 kts 24°
2026-05-06 07:23 48.82798 12.17950 20720 ft 413 kts 24°
2026-05-06 07:23 48.85404 12.19866 21326 ft 419 kts 24°
2026-05-06 07:23 48.88043 12.21805 21972 ft 424 kts 24°
2026-05-06 07:24 48.90717 12.23747 22627 ft 428 kts 23°
2026-05-06 07:24 48.93430 12.25671 23260 ft 432 kts 22°
2026-05-06 07:24 48.96177 12.27596 23798 ft 437 kts 22°
2026-05-06 07:24 48.98963 12.29492 24305 ft 440 kts 18°
2026-05-06 07:25 49.01899 12.30748 24793 ft 441 kts 10°
2026-05-06 07:25 49.04899 12.31840 25311 ft 444 kts
2026-05-06 07:25 49.07921 12.32940 25800 ft 448 kts 10°
2026-05-06 07:25 49.10966 12.34051 26332 ft 451 kts
2026-05-06 07:26 49.14029 12.35171 26723 ft 454 kts
2026-05-06 07:26 49.17109 12.36299 26829 ft 460 kts
2026-05-06 07:26 49.20265 12.37451 26845 ft 474 kts
2026-05-06 07:26 49.23521 12.38637 26838 ft 487 kts
2026-05-06 07:27 49.26841 12.39847 26839 ft 493 kts 10°
2026-05-06 07:27 49.30185 12.41075 26848 ft 495 kts 10°
2026-05-06 07:27 49.33576 12.42332 26829 ft 495 kts 10°
2026-05-06 07:27 49.36877 12.43561 26831 ft 495 kts 10°
2026-05-06 07:28 49.40268 12.44822 26827 ft 495 kts 10°
2026-05-06 07:28 49.43616 12.46061 26829 ft 495 kts 10°
2026-05-06 07:28 49.50316 12.48530 26823 ft 495 kts 10°
2026-05-06 07:29 49.53621 12.49752 26828 ft 495 kts 10°
2026-05-06 07:29 49.56969 12.50993 26823 ft 495 kts 10°
2026-05-06 07:29 49.60316 12.52233 26817 ft 495 kts 10°
2026-05-06 07:29 49.63661 12.53473 26812 ft 494 kts 10°
2026-05-06 07:30 49.67003 12.54717 26805 ft 494 kts 10°
2026-05-06 07:30 49.70345 12.55966 26802 ft 494 kts 10°
2026-05-06 07:30 49.73687 12.57217 26822 ft 494 kts 10°
2026-05-06 07:30 49.77033 12.58469 26812 ft 495 kts 10°
2026-05-06 07:31 49.80374 12.59725 26809 ft 495 kts 10°
2026-05-06 07:31 49.83725 12.60986 26804 ft 496 kts 10°
2026-05-06 07:31 49.87075 12.62245 26803 ft 495 kts 10°
2026-05-06 07:31 49.90426 12.63503 26803 ft 496 kts 10°
2026-05-06 07:32 49.93777 12.64763 26797 ft 496 kts 10°
2026-05-06 07:32 49.97129 12.66028 26811 ft 495 kts 11°
2026-05-06 07:32 50.00478 12.67299 26809 ft 495 kts 11°
2026-05-06 07:32 50.03826 12.68572 26804 ft 495 kts 11°
2026-05-06 07:33 50.07172 12.69841 26804 ft 495 kts 11°
2026-05-06 07:33 50.10516 12.71106 26799 ft 495 kts 10°
2026-05-06 07:33 50.13860 12.72371 26799 ft 494 kts 10°
2026-05-06 07:33 50.17201 12.73637 26795 ft 494 kts 11°
2026-05-06 07:34 50.20542 12.74906 26794 ft 494 kts 10°
2026-05-06 07:34 50.23885 12.76183 26796 ft 495 kts 11°
2026-05-06 07:34 50.27225 12.77466 26740 ft 493 kts 11°
2026-05-06 07:34 50.30493 12.78731 26550 ft 474 kts 11°
2026-05-06 07:35 50.33656 12.79960 25921 ft 466 kts 11°
2026-05-06 07:35 50.36753 12.81388 25313 ft 462 kts 18°
2026-05-06 07:35 50.39645 12.83542 24702 ft 459 kts 28°
2026-05-06 07:35 50.42367 12.86107 24043 ft 454 kts 29°
2026-05-06 07:36 50.45046 12.88650 23241 ft 447 kts 29°
2026-05-06 07:36 50.47696 12.91169 22578 ft 442 kts 29°
2026-05-06 07:36 50.50304 12.93651 22045 ft 435 kts 30°
2026-05-06 07:36 50.52874 12.96098 21533 ft 429 kts 29°
2026-05-06 07:37 50.55414 12.98516 21022 ft 425 kts 30°
2026-05-06 07:37 50.57931 13.00914 20506 ft 421 kts 30°
2026-05-06 07:37 50.60425 13.03292 20007 ft 417 kts 30°
2026-05-06 07:37 50.62868 13.05721 19446 ft 416 kts 35°
2026-05-06 07:38 50.65079 13.08636 18928 ft 413 kts 41°
2026-05-06 07:38 50.67225 13.11636 18390 ft 411 kts 41°
2026-05-06 07:38 50.69359 13.14617 17820 ft 409 kts 40°
2026-05-06 07:38 50.71479 13.17573 17283 ft 404 kts 40°
2026-05-06 07:39 50.73575 13.20493 16748 ft 399 kts 40°
2026-05-06 07:39 50.75642 13.23381 16243 ft 395 kts 41°
2026-05-06 07:39 50.77686 13.26244 15748 ft 391 kts 41°
2026-05-06 07:39 50.79711 13.29083 15237 ft 387 kts 41°
2026-05-06 07:40 50.81719 13.31899 14751 ft 385 kts 40°
2026-05-06 07:40 50.83713 13.34696 14252 ft 382 kts 40°
2026-05-06 07:40 50.85693 13.37474 13751 ft 379 kts 40°
2026-05-06 07:40 50.87656 13.40232 13225 ft 376 kts 40°
2026-05-06 07:41 50.89602 13.42975 12717 ft 373 kts 40°
2026-05-06 07:41 50.91531 13.45698 12229 ft 369 kts 40°
2026-05-06 07:41 50.93440 13.48395 11710 ft 366 kts 40°
2026-05-06 07:41 50.95333 13.51073 11212 ft 363 kts 40°
2026-05-06 07:42 50.97213 13.53733 10701 ft 361 kts 40°
2026-05-06 07:42 50.99080 13.56374 10199 ft 358 kts 40°
2026-05-06 07:42 51.00899 13.58959 10014 ft 345 kts 41°
2026-05-06 07:42 51.02439 13.61740 9889 ft 327 kts 52°
2026-05-06 07:43 51.03780 13.64594 9616 ft 319 kts 52°
2026-05-06 07:43 51.05099 13.67392 9355 ft 315 kts 52°
2026-05-06 07:43 51.06409 13.70167 8958 ft 312 kts 52°
2026-05-06 07:43 51.07708 13.72916 8668 ft 309 kts 51°
2026-05-06 07:44 51.09004 13.75653 8346 ft 310 kts 51°
2026-05-06 07:44 51.10296 13.78390 7939 ft 308 kts 51°
2026-05-06 07:44 51.11573 13.81104 7527 ft 306 kts 51°
2026-05-06 07:44 51.12849 13.83810 7115 ft 304 kts 51°
2026-05-06 07:45 51.14113 13.86499 6709 ft 303 kts 51°
2026-05-06 07:45 51.15365 13.89180 6303 ft 301 kts 51°
2026-05-06 07:45 51.16605 13.91838 6006 ft 293 kts 51°
2026-05-06 07:45 51.17812 13.94423 5536 ft 293 kts 51°
2026-05-06 07:46 51.19026 13.97024 5101 ft 292 kts 52°
2026-05-06 07:46 51.20231 13.99607 4695 ft 289 kts 52°
2026-05-06 07:46 51.21652 14.01731 4462 ft 273 kts 22°
2026-05-06 07:46 51.23399 14.02319 4275 ft 246 kts 349°
2026-05-06 07:47 51.24938 14.01553 4115 ft 223 kts 320°
2026-05-06 07:47 51.25970 13.99925 4035 ft 198 kts 295°
2026-05-06 07:47 51.26428 13.97990 3997 ft 178 kts 274°
2026-05-06 07:47 51.26395 13.96106 3943 ft 164 kts 257°
2026-05-06 07:48 51.25982 13.94457 3770 ft 158 kts 239°
2026-05-06 07:48 51.25289 13.93188 3598 ft 149 kts 224°
2026-05-06 07:48 51.24537 13.92155 3441 ft 136 kts 225°
2026-05-06 07:48 51.23852 13.91206 3260 ft 126 kts 225°
2026-05-06 07:49 51.23205 13.90307 3097 ft 121 kts 225°
2026-05-06 07:49 51.22573 13.89431 2951 ft 120 kts 225°
2026-05-06 07:49 51.21950 13.88564 2795 ft 118 kts 225°
2026-05-06 07:49 51.21324 13.87695 2608 ft 120 kts 226°
2026-05-06 07:50 51.20700 13.86835 2450 ft 118 kts 226°
2026-05-06 07:50 51.20085 13.85966 2293 ft 118 kts 228°
2026-05-06 07:50 51.19460 13.85121 2138 ft 118 kts 226°
2026-05-06 07:50 51.18850 13.84264 1962 ft 118 kts 227°
2026-05-06 07:51 51.18253 13.83379 1842 ft 117 kts 229°
2026-05-06 07:51 51.17647 13.82515 1729 ft 117 kts 225°
2026-05-06 07:51 51.17011 13.81702 1501 ft 116 kts 223°
2026-05-06 07:51 51.16375 13.80876 1236 ft 117 kts 223°
2026-05-06 07:52 51.15769 13.80026 1108 ft 117 kts 224°
2026-05-06 07:52 51.15128 13.79135 948 ft 120 kts 221°
2026-05-06 07:52 51.14507 13.78265 812 ft 117 kts 222°
2026-05-06 07:52 51.13904 13.77438 727 ft 106 kts 219°
2026-05-06 07:53 51.13459 13.76839 740 ft 60 kts 221°
2026-05-06 07:53 51.13225 13.76516 747 ft 38 kts 221°
2026-05-06 07:53 51.13100 13.76337 749 ft 35 kts 222°
2026-05-06 07:53 51.12871 13.76027 759 ft 31 kts 219°
2026-05-06 07:54 51.12768 13.75886 762 ft 23 kts 222°
2026-05-06 07:54 51.12664 13.75899 762 ft 19 kts 133°
2026-05-06 07:54 51.12580 13.76057 757 ft 15 kts 114°
2026-05-06 07:54 51.12642 13.76188 756 ft 17 kts 39°
2026-05-06 07:55 51.12673 13.76322 756 ft 11 kts 134°
2026-05-06 07:55 51.12635 13.76389 751 ft 8 kts 129°
2026-05-06 07:55 51.12629 13.76401 753 ft 0 kts 130°